Change the Weather History Date:

Saturday, January 5, 2013

  Actual Average (KDMN) Record (KDMN)
Temperature  
Mean Temperature 30 °F 40 °F  
Max Temperature 44 °F 55 °F 67 °F (1948)
Min Temperature 15 °F 26 °F 7 °F (1949)
Degree Days  
Heating Degree Days 36    
Moisture  
Dew Point 18 °F    
Average Humidity 73    
Maximum Humidity 93    
Minimum Humidity 34    
Precipitation  
Precipitation 0.00 in 0.02 in 0.26 in (1991)
Month to date precipitation 0.09  
Year to date precipitation 0.09  
Sea Level Pressure  
Sea Level Pressure 30.30 in    
Wind  
Wind Speed 7 mph (North)    
Max Wind Speed 12 mph    
Max Gust Speed -    
Visibility 10 miles    
Events      
T = Trace of Precipitation, MM = Missing Value Source: NWS Daily Summary

Daily Weather History Graph

Daily Weather History Graph

Search for Another Location

Airport or City:

Trip Planner

Search our weather history database for the weather conditions in past years. The results will help you decide how hot, cold, wet, or windy it might be!

Date:

Astronomy

Jan. 05, 2013 Rise Set
Actual Time 7:15 AM MST 5:21 PM MST
Civil Twilight 6:48 AM MST 5:48 PM MST
Nautical Twilight 6:17 AM MST 6:18 PM MST
Astronomical Twilight 5:47 AM MST 6:48 PM MST
Moon 12:36 AM MST (1/5) 12:03 PM MST (1/5)
Length of Visible Light 10h 59m
Length of Day
10h 05m
Last Quarter, 43% of the Moon is Illuminated
Jan 5
Last Quarter
Jan 11
New
Jan 18
First Quarter
Jan 26
Full
Feb 3
Last Quarter

Hourly Weather History & Observations

Time (MST) Temp. Windchill Dew Point Humidity Pressure Visibility Wind Dir Wind Speed Gust Speed Precip Events Conditions
12:15 AM 15.8 °F 4.2 °F 14.0 °F 93% 30.27 in 10.0 mi NNW 9.2 mph - N/A   Clear
12:35 AM 17.6 °F 7.3 °F 15.8 °F 93% 30.27 in 10.0 mi North 8.1 mph - N/A   Clear
12:55 AM 15.8 °F 4.2 °F 14.0 °F 93% 30.27 in 10.0 mi North 9.2 mph - N/A   Clear
1:15 AM 17.6 °F 6.4 °F 14.0 °F 86% 30.28 in 10.0 mi North 9.2 mph - N/A   Clear
1:35 AM 15.8 °F 6.1 °F 14.0 °F 93% 30.28 in 10.0 mi North 6.9 mph - N/A   Clear
1:55 AM 15.8 °F 5.1 °F 14.0 °F 93% 30.28 in 10.0 mi North 8.1 mph - N/A   Clear
2:15 AM 17.6 °F 6.4 °F 14.0 °F 86% 30.28 in 10.0 mi North 9.2 mph - N/A   Clear
2:35 AM 17.6 °F 5.7 °F 14.0 °F 86% 30.28 in 10.0 mi North 10.4 mph - N/A   Clear
2:55 AM 17.6 °F 7.3 °F 15.8 °F 93% 30.28 in 10.0 mi NNW 8.1 mph - N/A   Clear
3:15 AM 19.4 °F 9.5 °F 15.8 °F 86% 30.28 in 10.0 mi WNW 8.1 mph - N/A   Clear
3:35 AM 17.6 °F 7.3 °F 15.8 °F 93% 30.27 in 10.0 mi NW 8.1 mph - N/A   Clear
3:55 AM 17.6 °F 5.0 °F 15.8 °F 93% 30.27 in 10.0 mi NW 11.5 mph - N/A   Clear
4:15 AM 19.4 °F 7.2 °F 17.6 °F 93% 30.27 in 10.0 mi NW 11.5 mph - N/A   Clear
4:55 AM 19.4 °F 9.5 °F 15.8 °F 86% 30.27 in 10.0 mi NNW 8.1 mph - N/A   Clear
5:35 AM 21.2 °F 10.9 °F 17.6 °F 86% 30.27 in 10.0 mi NW 9.2 mph - N/A   Clear
5:55 AM 17.6 °F 8.2 °F 14.0 °F 86% 30.28 in 10.0 mi North 6.9 mph - N/A   Clear
6:15 AM 17.6 °F 5.7 °F 14.0 °F 86% 30.28 in 10.0 mi NNW 10.4 mph - N/A   Clear
6:35 AM 21.2 °F 10.1 °F 17.6 °F 86% 30.29 in 10.0 mi NNW 10.4 mph - N/A   Clear
6:55 AM 19.4 °F 7.9 °F 15.8 °F 86% 30.30 in 10.0 mi NNW 10.4 mph - N/A   Clear
7:15 AM 19.4 °F 9.5 °F 15.8 °F 86% 30.31 in 10.0 mi NNE 8.1 mph - N/A   Clear
7:35 AM 17.6 °F 10.7 °F 14.0 °F 86% 30.32 in 10.0 mi North 4.6 mph - N/A   Clear
7:55 AM 17.6 °F 10.7 °F 14.0 °F 86% 30.33 in 10.0 mi ENE 4.6 mph - N/A   Clear
8:15 AM 21.2 °F - 17.6 °F 86% 30.34 in 10.0 mi Calm Calm - N/A   Clear
8:35 AM 24.8 °F - 19.4 °F 80% 30.34 in 10.0 mi Calm Calm - N/A   Clear
8:55 AM 26.6 °F 22.6 °F 19.4 °F 74% 30.34 in 10.0 mi ESE 3.5 mph - N/A   Clear
9:15 AM 28.4 °F 24.6 °F 19.4 °F 69% 30.35 in 10.0 mi ENE 3.5 mph - N/A   Clear
9:35 AM 28.4 °F - 21.2 °F 74% 30.35 in 10.0 mi Calm Calm - N/A   Clear
9:55 AM 32.0 °F 28.7 °F 21.2 °F 64% 30.35 in 10.0 mi NW 3.5 mph - N/A   Clear
10:35 AM 35.6 °F - 19.4 °F 52% 30.35 in 10.0 mi Calm Calm - N/A   Clear
10:55 AM 37.4 °F - 17.6 °F 45% 30.34 in 10.0 mi Calm Calm - N/A   Clear
11:15 AM 37.4 °F - 17.6 °F 45% 30.33 in 10.0 mi Calm Calm - N/A   Clear
11:55 AM 41.0 °F 38.0 °F 17.6 °F 39% 30.31 in 10.0 mi SSW 4.6 mph - N/A   Clear
12:15 PM 42.8 °F 40.1 °F 15.8 °F 34% 30.30 in 10.0 mi SSW 4.6 mph - N/A   Clear
12:35 PM 42.8 °F 38.6 °F 17.6 °F 36% 30.29 in 10.0 mi SSE 6.9 mph - N/A   Clear
12:55 PM 41.0 °F 35.8 °F 15.8 °F 36% 30.28 in 10.0 mi South 8.1 mph - N/A   Clear
1:15 PM 42.8 °F 38.6 °F 15.8 °F 34% 30.28 in 10.0 mi SSE 6.9 mph - N/A   Clear
1:35 PM 44.6 °F 42.2 °F 17.6 °F 34% 30.28 in 10.0 mi SSW 4.6 mph - N/A   Clear
1:55 PM 44.6 °F 40.7 °F 19.4 °F 37% 30.27 in 10.0 mi SE 6.9 mph - N/A   Clear
2:15 PM 44.6 °F 41.4 °F 21.2 °F 39% 30.27 in 10.0 mi South 5.8 mph - N/A   Clear
2:35 PM 42.8 °F 38.6 °F 23.0 °F 46% 30.28 in 10.0 mi SSE 6.9 mph - N/A   Clear
2:55 PM 41.0 °F 35.8 °F 23.0 °F 49% 30.28 in 10.0 mi SE 8.1 mph - N/A   Clear
3:15 PM 42.8 °F 37.5 °F 23.0 °F 46% 30.28 in 10.0 mi SSE 9.2 mph - N/A   Clear
3:55 PM 41.0 °F 36.4 °F 24.8 °F 53% 30.28 in 10.0 mi SSE 6.9 mph - N/A   Clear
4:15 PM 41.0 °F 35.2 °F 24.8 °F 53% 30.28 in 10.0 mi SSE 9.2 mph - N/A   Clear
4:35 PM 39.2 °F 33.6 °F 24.8 °F 56% 30.28 in 10.0 mi SSE 8.1 mph - N/A   Clear
5:15 PM 35.6 °F 30.7 °F 24.8 °F 65% 30.29 in 10.0 mi SSE 5.8 mph - N/A   Clear
5:35 PM 32.0 °F 26.4 °F 23.0 °F 69% 30.30 in 10.0 mi SSE 5.8 mph - N/A   Clear
5:55 PM 32.0 °F 27.5 °F 23.0 °F 69% 30.30 in 10.0 mi South 4.6 mph - N/A   Clear
6:15 PM 32.0 °F 27.5 °F 23.0 °F 69% 30.31 in 10.0 mi SE 4.6 mph - N/A   Clear
6:55 PM 30.2 °F 26.7 °F 23.0 °F 75% 30.32 in 10.0 mi ESE 3.5 mph - N/A   Clear
7:15 PM 26.6 °F 22.6 °F 19.4 °F 74% 30.32 in 10.0 mi NE 3.5 mph - N/A   Clear
7:35 PM 23.0 °F 18.4 °F 15.8 °F 74% 30.33 in 10.0 mi North 3.5 mph - N/A   Clear
7:55 PM 21.2 °F 14.9 °F 15.8 °F 80% 30.32 in 10.0 mi North 4.6 mph - N/A   Clear
8:15 PM 23.0 °F 14.7 °F 17.6 °F 80% 30.32 in 10.0 mi North 6.9 mph - N/A   Clear
8:35 PM 21.2 °F 12.6 °F 17.6 °F 86% 30.32 in 10.0 mi NNW 6.9 mph - N/A   Clear
8:55 PM 21.2 °F - 15.8 °F 80% 30.33 in 10.0 mi North - - N/A   Clear
9:15 PM 21.2 °F 11.7 °F 17.6 °F 86% 30.33 in 10.0 mi North 8.1 mph - N/A   Clear
9:35 PM 23.0 °F 18.4 °F 17.6 °F 80% 30.33 in 10.0 mi NNE 3.5 mph - N/A   Clear
9:55 PM 21.2 °F - 17.6 °F 86% 30.34 in 10.0 mi Calm Calm - N/A   Clear
10:15 PM 17.6 °F 12.3 °F 15.8 °F 93% 30.34 in 10.0 mi NNW 3.5 mph - N/A   Clear
10:35 PM 17.6 °F 9.3 °F 14.0 °F 86% 30.34 in 10.0 mi NNE 5.8 mph - N/A   Clear
10:55 PM 19.4 °F 11.5 °F 15.8 °F 86% 30.34 in 10.0 mi North 5.8 mph - N/A   Clear
11:15 PM 17.6 °F 10.7 °F 14.0 °F 86% 30.33 in 10.0 mi North 4.6 mph - N/A   Clear
11:35 PM 17.6 °F 8.2 °F 14.0 °F 86% 30.33 in 10.0 mi NNW 6.9 mph - N/A   Clear
11:55 PM 17.6 °F 8.2 °F 14.0 °F 86% 30.33 in 10.0 mi NNW 6.9 mph - N/A   Clear